• In Hungary
  • List of Countries
  • For 7 days
  • Water Temperature
  • Satellite Maps
  • Weather Map
  • News
  • Weather Widgets
  • user-avatar
    Login

    Hourly Weather Boussu

    Today, 24 September, Monday

    Time Temperature Precipitation Wind Pressure Humidity
    00:00 +8°C° 0 mm 2 mps 767 mmHg 89%
    01:00 +8°C° 0 mm 2 mps 768 mmHg 89%
    02:00 +8°C° 0 mm 2 mps 768 mmHg 88%
    03:00 +7°C° 0 mm 2 mps 769 mmHg 88%
    04:00 +7°C° 0 mm 2 mps 769 mmHg 88%
    05:00 +7°C° 0 mm 2 mps 770 mmHg 88%
    06:00 +7°C° 0 mm 2 mps 770 mmHg 88%
    07:00 +9°C° 0 mm 2 mps 771 mmHg 82%
    08:00 +11°C° 0 mm 3 mps 771 mmHg 75%
    09:00 +13°C° 0 mm 3 mps 772 mmHg 69%
    10:00 +14°C° 0 mm 3 mps 772 mmHg 64%
    11:00 +15°C° 0 mm 4 mps 772 mmHg 59%
    12:00 +15°C° 0 mm 4 mps 772 mmHg 54%
    13:00 +15°C° 0 mm 4 mps 772 mmHg 54%
    14:00 +15°C° 0 mm 4 mps 772 mmHg 54%
    15:00 +15°C° 0 mm 4 mps 772 mmHg 54%
    16:00 +14°C° 0 mm 4 mps 772 mmHg 61%
    17:00 +12°C° 0 mm 3 mps 772 mmHg 68%
    18:00 +10°C° 0 mm 3 mps 772 mmHg 74%
    19:00 +10°C° 0 mm 2 mps 773 mmHg 77%
    20:00 +9°C° 0 mm 2 mps 773 mmHg 79%
    21:00 +8°C° 0 mm 2 mps 773 mmHg 81%
    22:00 +8°C° 0 mm 2 mps 774 mmHg 82%
    23:00 +8°C° 0 mm 2 mps 774 mmHg 82%

    Tomorrow, 25 September, Tuesday

    Time Temperature Precipitation Wind Pressure Humidity
    00:00 +8°C° 0 mm 1 mps 774 mmHg 83%
    01:00 +8°C° 0 mm 1 mps 774 mmHg 84%
    02:00 +8°C° 0 mm 1 mps 773 mmHg 85%
    03:00 +7°C° 0 mm 1 mps 773 mmHg 86%
    04:00 +7°C° 0 mm 1 mps 774 mmHg 86%
    05:00 +7°C° 0 mm 1 mps 774 mmHg 86%
    06:00 +7°C° 0 mm 1 mps 774 mmHg 86%
    07:00 +9°C° 0 mm 1 mps 774 mmHg 79%
    08:00 +10°C° 0 mm 2 mps 774 mmHg 71%
    09:00 +13°C° 0 mm 2 mps 774 mmHg 64%
    10:00 +14°C° 0 mm 2 mps 774 mmHg 59%
    11:00 +15°C° 0 mm 2 mps 774 mmHg 54%
    12:00 +16°C° 0 mm 3 mps 773 mmHg 49%
    13:00 +16°C° 0 mm 3 mps 773 mmHg 49%
    14:00 +17°C° 0 mm 2 mps 773 mmHg 48%
    15:00 +17°C° 0 mm 2 mps 772 mmHg 48%
    16:00 +15°C° 0 mm 2 mps 772 mmHg 53%
    17:00 +14°C° 0 mm 2 mps 772 mmHg 59%
    18:00 +12°C° 0 mm 2 mps 772 mmHg 64%
    19:00 +10°C° 0 mm 2 mps 772 mmHg 66%
    20:00 +10°C° 0 mm 2 mps 772 mmHg 68%
    21:00 +9°C° 0 mm 2 mps 772 mmHg 70%
    22:00 +9°C° 0 mm 2 mps 772 mmHg 71%
    23:00 +8°C° 0 mm 2 mps 772 mmHg 72%

    Day after tomorrow, 26 September, Wednesday

    Time Temperature Precipitation Wind Pressure Humidity
    00:00 +8°C° 0 mm 2 mps 772 mmHg 72%
    01:00 +8°C° 0 mm 2 mps 772 mmHg 72%
    02:00 +7°C° 0 mm 2 mps 771 mmHg 71%
    03:00 +7°C° 0 mm 2 mps 771 mmHg 70%
    04:00 +8°C° 0 mm 1 mps 771 mmHg 69%
    05:00 +8°C° 0 mm 1 mps 771 mmHg 68%
    06:00 +8°C° 0 mm 1 mps 771 mmHg 68%
    07:00 +10°C° 0 mm 1 mps 771 mmHg 62%
    08:00 +12°C° 0 mm 1 mps 771 mmHg 56%
    09:00 +14°C° 0 mm 1 mps 771 mmHg 50%
    10:00 +16°C° 0 mm 1 mps 771 mmHg 46%
    11:00 +18°C° 0 mm 1 mps 771 mmHg 43%
    12:00 +20°C° 0 mm 1 mps 771 mmHg 39%
    13:00 +20°C° 0 mm 1 mps 770 mmHg 39%
    14:00 +21°C° 0 mm 1 mps 770 mmHg 39%
    15:00 +21°C° 0 mm 1 mps 769 mmHg 38%
    16:00 +19°C° 0 mm 1 mps 769 mmHg 43%
    17:00 +15°C° 0 mm 0 mps 769 mmHg 48%
    18:00 +13°C° 0 mm 0 mps 769 mmHg 53%
    19:00 +13°C° 0 mm 0 mps 769 mmHg 55%
    20:00 +13°C° 0 mm 1 mps 770 mmHg 56%
    21:00 +13°C° 0 mm 1 mps 770 mmHg 58%
    22:00 +12°C° 0 mm 1 mps 769 mmHg 59%
    23:00 +12°C° 0 mm 1 mps 769 mmHg 60%

    27 September, Thursday

    Time Temperature Precipitation Wind Pressure Humidity
    00:00 +11°C° 0 mm 1 mps 769 mmHg 62%
    01:00 +11°C° 0 mm 1 mps 769 mmHg 63%
    02:00 +11°C° 0 mm 1 mps 768 mmHg 63%
    03:00 +10°C° 0 mm 1 mps 768 mmHg 64%
    04:00 +10°C° 0 mm 1 mps 768 mmHg 65%
    05:00 +10°C° 0 mm 1 mps 768 mmHg 65%
    06:00 +9°C° 0 mm 2 mps 768 mmHg 66%
    07:00 +12°C° 0 mm 2 mps 767 mmHg 62%
    08:00 +14°C° 0 mm 2 mps 767 mmHg 57%
    09:00 +16°C° 0 mm 2 mps 767 mmHg 53%
    10:00 +18°C° 0 mm 2 mps 767 mmHg 49%
    11:00 +19°C° 0 mm 2 mps 766 mmHg 46%
    12:00 +21°C° 0 mm 2 mps 766 mmHg 42%
    13:00 +21°C° 0 mm 2 mps 765 mmHg 42%
    14:00 +21°C° 0 mm 2 mps 765 mmHg 42%
    15:00 +23°C° 0 mm 2 mps 765 mmHg 42%
    16:00 +19°C° 0 mm 2 mps 764 mmHg 48%
    17:00 +18°C° 0 mm 1 mps 764 mmHg 53%
    18:00 +15°C° 0 mm 1 mps 764 mmHg 59%
    19:00 +15°C° 0 mm 1 mps 764 mmHg 61%
    20:00 +13°C° 0 mm 0 mps 764 mmHg 62%
    21:00 +12°C° 0 mm 0 mps 764 mmHg 64%
    22:00 +12°C° 0 mm 0 mps 764 mmHg 65%
    23:00 +11°C° 0 mm 0 mps 764 mmHg 67%

    28 September, Friday

    Time Temperature Precipitation Wind Pressure Humidity
    00:00 +11°C° 0 mm 0 mps 764 mmHg 69%
    01:00 +11°C° 0 mm 0 mps 763 mmHg 70%
    02:00 +10°C° 0 mm 0 mps 763 mmHg 71%
    03:00 +10°C° 0 mm 0 mps 763 mmHg 72%
    04:00 +11°C° 0 mm 1 mps 763 mmHg 72%
    05:00 +11°C° 0 mm 1 mps 763 mmHg 73%
    06:00 +10°C° 0 mm 1 mps 763 mmHg 74%
    07:00 +12°C° 0 mm 1 mps 763 mmHg 69%
    08:00 +14°C° 0 mm 2 mps 763 mmHg 64%
    09:00 +17°C° 0 mm 2 mps 763 mmHg 59%
    10:00 +18°C° 0 mm 3 mps 763 mmHg 57%
    11:00 +19°C° 0 mm 3 mps 763 mmHg 56%
    12:00 +20°C° 0 mm 4 mps 763 mmHg 54%
    13:00 +19°C° 0 mm 5 mps 763 mmHg 57%
    14:00 +19°C° 0 mm 6 mps 763 mmHg 61%
    15:00 +19°C° 0 mm 6 mps 763 mmHg 64%
    16:00 +16°C° 0 mm 6 mps 764 mmHg 69%
    17:00 +15°C° 0 mm 5 mps 764 mmHg 73%
    18:00 +13°C° 0 mm 5 mps 764 mmHg 78%
    19:00 +12°C° 0 mm 5 mps 765 mmHg 78%
    20:00 +12°C° 0 mm 5 mps 765 mmHg 78%
    21:00 +10°C° 0 mm 5 mps 766 mmHg 77%
    22:00 +10°C° 0 mm 5 mps 766 mmHg 77%
    23:00 +9°C° 0 mm 5 mps 766 mmHg 76%

    29 September, Saturday

    Time Temperature Precipitation Wind Pressure Humidity
    00:00 +9°C° 0 mm 5 mps 766 mmHg 75%
    01:00 +8°C° 0 mm 5 mps 766 mmHg 76%
    02:00 +8°C° 0 mm 5 mps 766 mmHg 77%
    03:00 +7°C° 0 mm 4 mps 766 mmHg 78%
    04:00 +7°C° 0 mm 4 mps 766 mmHg 79%
    05:00 +7°C° 0 mm 4 mps 766 mmHg 81%
    06:00 +6°C° 0 mm 4 mps 766 mmHg 82%
    07:00 +8°C° 0 mm 4 mps 765 mmHg 77%
    08:00 +10°C° 0 mm 5 mps 765 mmHg 71%
    09:00 +12°C° 0 mm 5 mps 765 mmHg 65%
    10:00 +14°C° 0 mm 5 mps 765 mmHg 62%
    11:00 +15°C° 0 mm 5 mps 764 mmHg 58%
    12:00 +17°C° 0 mm 5 mps 764 mmHg 55%
    13:00 +17°C° 0 mm 5 mps 763 mmHg 54%
    14:00 +17°C° 0 mm 5 mps 763 mmHg 54%
    15:00 +19°C° 0 mm 4 mps 762 mmHg 54%
    16:00 +17°C° 0 mm 4 mps 762 mmHg 58%
    17:00 +14°C° 0 mm 4 mps 762 mmHg 63%
    18:00 +13°C° 0 mm 3 mps 762 mmHg 67%
    19:00 +12°C° 0 mm 3 mps 762 mmHg 68%
    20:00 +11°C° 0 mm 3 mps 761 mmHg 69%
    21:00 +11°C° 0 mm 3 mps 761 mmHg 69%
    22:00 +10°C° 0 mm 3 mps 761 mmHg 69%
    23:00 +10°C° 0 mm 2 mps 761 mmHg 70%
    Show more

    3.3.7123123